Regional Weather Roundup
Issued by NWS Jackson, KY

Home | Current Version | Previous Version | Graphics & Text | Print | Product List | Glossary On
Versions: 1 2 3 4 5 6 7 8 9 10 11 12 13 14 15 16 17 18 19 20 21 22 23 24 25 26 27 28 29 30 31 32 33 34 35 36 37 38 39 40 41 42 43 44 45 46 47 48 49 50
000
ASUS43 KJKL 220510
RWRJKL

EAST KENTUCKY HOURLY WEATHER ROUNDUP
NATIONAL WEATHER SERVICE JACKSON KY
100 AM EDT FRI MAY 22 2015

NOTE: "FAIR" INDICATES FEW OR NO CLOUDS BELOW 12,000 FEET WITH
NO SIGNIFICANT WEATHER AND/OR OBSTRUCTIONS TO VISIBILITY.

* THESE REPORTS ARE NOT UNDER NWS QUALITY CONTROL AND MAY NOT
  REPORT WEATHER SUCH AS PRECIPITATION AND FOG.

KYZ079-080-083-085-087-088-110-112-115-119-120-220600
...EASTERN KENTUCKY...

CITY           SKY/WX    TMP DP  RH WIND       PRES   REMARKS
JACKSON        CLEAR     47  45  93 W3        30.17R
LONDON         CLEAR     50  44  80 W3        30.18R
SOMERSET*      CLEAR     46  45  93 CALM      30.20S
MONTICELLO*    CLEAR     47  47 100 CALM      30.22S
MIDDLESBORO*   CLOUDY    51  47  86 CALM      30.18S
HARLAN APT*    CLOUDY    50  45  81 NE5       30.18R
BIG SANDY*     CLEAR     48  47  97 W3        30.16S
MOREHEAD APT*  CLEAR     45  43  93 CALM      30.18S
$$

KYZ035-036-041-042-044-050-067-078-099-220600
...CENTRAL KENTUCKY...

CITY           SKY/WX    TMP DP  RH WIND       PRES   REMARKS
MT STERLING*   CLEAR     41  41 100 W3        30.18S
DANVILLE*      CLEAR     43  43 100 CALM      30.20R
RICHMOND*      CLEAR     46  43  87 CALM      30.17S
LEXINGTON      CLEAR     44  42  93 SW5       30.17S
FRANKFORT      CLEAR     45  41  86 SW5       30.16S
$$

KYZ091>093-OHZ055-061-077-WVZ005-015-034-035-042-220600
...SOUTHERN OHIO/WEST VIRGINIA...

CITY           SKY/WX    TMP DP  RH WIND       PRES   REMARKS
COVINGTON      CLEAR     47  41  80 SW5       30.14S
COLUMBUS       CLEAR     47  40  76 S3        30.09S
DAYTON         CLEAR     49  40  71 SW9       30.11R
WILMINGTON     CLEAR     44  39  82 SW6       30.12S
HUNTINGTON     CLEAR     45  45 100 S6        30.14R
CHARLESTON     PTCLDY    49  47  93 W5        30.13S FOG
PINEVILLE*     CLOUDY    49  49  97 MISG      30.19R
BECKLEY        CLOUDY    46  43  89 NW7       30.12R FOG
BLUEFIELD      CLOUDY    47  42  83 NW6       30.13R
$$

VAZ002-007-008-TNZ017-027-036-066-071-220600
...SOUTHWEST VIRGINIA/EAST TENNESSEE...

CITY           SKY/WX    TMP DP  RH WIND       PRES   REMARKS
WISE*          CLOUDY    45  45 100 CALM      30.17R FOG
JONESVILLE*    CLOUDY    50  46  87 CALM      30.19S
ABINGDON*      MOCLDY    51  46  82 N3        30.14S
BRISTOL        CLOUDY    52  46  80 NW6       30.14R
KNOXVILLE      CLOUDY    54  45  71 N10       30.15S
OAK RIDGE      CLOUDY    54  46  74 CALM      30.18S
CROSSVILLE     PTCLDY    47  44  90 N5        30.18S
NASHVILLE      CLEAR     50  45  83 NW3       30.21S
$$

...KEY TO REMARKS...
VSB - VISIBILITY IN MILES
WCI - WIND CHILL INDEX
HX  - HEAT INDEX

$$


USA.gov is the U.S. government's official web portal to all federal, state and local government web resources and services.